[[{"header":{"parameterUnit":"m.s-1","parameterCategory":1,"la1":30.2991,"la2":30.254,"lo1":-89.0895,"lo2":-89.0444,"dy":0.0017,"dx":0.0017,"nx":28,"ny":28,"refTime":"2024-03-13T09:00:00:Z","depth":0,"parameterNumber":2,"parameterNumberName":"U-component_of_WINDS"},"data":[0,0,0,0,0,0,0,0,0,0,0,0,0,0,0,0,0,0,0,0,0,0,0,0,0,0,0,0,0,0,0,0,0,0,0,0,0,0,0,0,0,0,0,0,0,0,0,0,0,0,0,0,0,0,0,0,0,0,1.1188,1.1189,0,1.1257,1.1258,1.1259,1.126,1.1259,1.1259,1.1258,1.1327,1.133,1.1332,0,0,0,0,0,0,0,0,0,0,0,0,0,1.1054,1.1056,1.1188,1.1189,1.1189,1.1257,1.1258,1.1259,1.126,1.1259,1.1258,1.1257,1.1326,1.1329,1.1332,0,0,0,0,0,0,0,0,0,0,0,0,0,1.1116,1.1057,1.1188,1.1198,1.12,1.1257,1.1258,1.1259,1.1261,1.1259,1.1258,1.1257,1.1325,1.1329,1.1333,1.1383,0,0,1.1345,1.1347,0,0,0,0,0,0,0,0,1.1113,1.1121,1.1196,1.1198,1.12,1.1249,1.1236,1.13,1.1261,1.1238,1.1258,1.1256,1.1302,1.1308,1.1323,1.1386,1.1389,1.1345,1.1348,1.1349,1.135,0,0,0,0,0,0,0,1.1109,1.1118,1.1215,1.1197,1.1199,1.1199,1.1206,1.1248,1.1276,1.124,1.124,1.1248,1.1303,1.132,1.1325,1.139,1.1345,1.1349,1.1351,1.1353,1.1494,1.1496,0,0,0,0,0,0,1.1102,1.1115,1.1213,1.1217,1.1152,1.1202,1.1211,1.1234,1.1276,1.1281,1.1249,1.1248,1.1313,1.132,1.1327,1.1387,1.1349,1.1353,1.1355,1.1493,1.1495,1.1496,0,0,0,0,0,0,1.11,1.1111,1.121,1.1166,1.1179,1.1206,1.1232,1.1236,1.1253,1.1283,1.1288,1.1262,1.1313,1.1322,1.1368,1.1389,1.1355,1.1358,1.1491,1.1493,1.1495,1.1506,0,0,0,0,0,0,1.1096,1.111,1.113,1.1167,1.1181,1.1251,1.1234,1.1239,1.126,1.1259,1.1296,1.13,1.1312,1.1363,1.1372,1.1394,1.1361,1.1489,1.1492,1.1495,1.1504,1.1508,1.1512,0,0,0,0,0,1.1091,1.113,1.1131,1.1143,1.1207,1.1252,1.126,1.1274,1.1262,1.1281,1.13,1.1299,1.1386,1.1367,1.1378,1.1401,1.1488,1.1491,1.1494,1.1502,1.1508,1.1512,0,0,0,0,0,0,1.1095,1.1135,1.1137,1.1189,1.1217,1.1252,1.1277,1.1279,1.1311,1.1308,1.1323,1.1331,1.1377,1.1394,1.1373,1.1451,1.1435,1.1441,1.1437,1.1443,1.1447,1.1441,1.1365,0,0,0,0,0,1.1102,1.1137,1.117,1.1213,1.1227,1.125,1.127,1.1278,1.1307,1.1319,1.1341,1.1369,1.1402,1.1424,1.1456,1.1507,1.1514,1.1528,1.1532,1.1535,1.1539,1.1565,1.1572,1.1506,1.1506,1.1506,0,0,1.1117,1.1144,1.1164,1.1214,1.1237,1.1271,1.126,1.1297,1.1321,1.1324,1.1369,1.1387,1.1419,1.1467,1.1489,1.1482,1.1559,1.1539,1.1542,1.1544,1.1569,1.1575,1.1581,1.1508,1.1508,1.1508,0,0,1.1161,1.1186,1.1223,1.1246,1.128,1.1295,1.1304,1.1339,1.135,1.1396,1.1398,1.1428,1.1486,1.1507,1.1526,1.1578,1.1577,1.1588,1.1608,1.1633,1.1638,1.1643,1.1659,1.1665,1.1592,1.1592,1.1592,0,1.1175,1.1227,1.1242,1.1279,1.13,1.1305,1.1342,1.1363,1.1406,1.142,1.1412,1.1483,1.1505,1.1558,1.157,1.1586,1.1595,1.1583,1.1637,1.1641,1.1646,1.1661,1.1668,1.1593,1.1593,1.1593,1.1593,0,1.1241,1.1277,1.1303,1.1345,1.1369,1.1406,1.1425,1.1448,1.1454,1.1469,1.1514,1.1541,1.1578,1.1591,1.1597,1.1644,1.1639,1.1634,1.1618,1.1653,1.1667,1.1674,1.1594,1.1594,1.1594,1.1594,0,0,1.1289,1.1338,1.1347,1.1365,1.1403,1.1431,1.1467,1.1504,1.1522,1.1551,1.1581,1.1629,1.1624,1.1645,1.1654,1.1677,1.1713,1.1669,1.1669,1.1674,1.1763,1.1765,1.1772,1.1713,1.1715,1.1716,1.176,0,1.1335,1.1401,1.1415,1.147,1.1503,1.1507,1.1539,1.1565,1.158,1.1609,1.1625,1.1658,1.1651,1.1663,1.1686,1.1704,1.1731,1.1701,1.1739,1.174,1.1729,1.178,1.1783,1.1824,1.1766,1.1767,1.1768,0,1.1398,1.1429,1.1488,1.152,1.1534,1.1562,1.1596,1.1624,1.1653,1.1662,1.1686,1.1692,1.1728,1.1712,1.1762,1.1741,1.1758,1.1769,1.1771,1.1773,1.1755,1.1782,1.1837,1.1842,1.1778,1.1777,1.1776,0,1.1424,1.1481,1.1523,1.1538,1.1578,1.1597,1.1614,1.1642,1.1662,1.1692,1.1705,1.1738,1.1756,1.1781,1.1795,1.1783,1.1843,1.1829,1.185,1.185,1.1861,1.186,1.1917,1.1875,1.1875,1.1875,1.1875,0,1.1473,1.1509,1.1535,1.156,1.1599,1.1615,1.1653,1.167,1.1695,1.1722,1.1729,1.1755,1.1774,1.1802,1.1814,1.1851,1.186,1.1867,1.187,1.1866,1.1864,1.1875,1.1872,1.1877,1.1876,1.1876,1.1876,0,1.1509,1.1528,1.1573,1.1607,1.1616,1.1643,1.1671,1.1695,1.1711,1.1746,1.1755,1.1779,1.1812,1.183,1.1872,1.1879,1.1921,1.1923,1.1911,1.1912,1.1931,1.1928,1.1996,1.2005,1.1959,1.1959,1.196,0,1.1538,1.1565,1.1601,1.162,1.1638,1.1669,1.169,1.1706,1.1728,1.1762,1.1782,1.1816,1.1844,1.1897,1.1917,1.1949,1.195,1.1971,1.1954,1.1949,1.1948,1.1945,1.1947,1.1974,1.1974,1.1974,1.1975,0,1.1586,1.1594,1.1624,1.1658,1.1682,1.1709,1.1735,1.1751,1.1771,1.1794,1.1829,1.185,1.1893,1.1925,1.1959,1.1975,1.1978,1.198,1.1986,1.1982,1.1973,1.1976,1.1917,1.1978,1.1978,1.1978,1.1977,1.1977,1.1618,1.1642,1.167,1.1703,1.1725,1.1749,1.1773,1.1791,1.182,1.1856,1.1864,1.19,1.1927,1.1972,1.1989,1.2017,1.2012,1.2022,1.2024,1.2025,1.2025,1.197,1.2023,1.2023,1.2023,1.2023,1.2023,0,1.1665,1.1684,1.1714,1.1751,1.1776,1.1777,1.1806,1.1827,1.1859,1.1884,1.1911,1.195,1.1981,1.2004,1.2036,1.2054,1.2056,1.2061,1.2059,1.2063,1.2028,1.2019,1.2059,1.2059,1.2059,1.2059,1.2059,1.2059,1.1693,1.1732,1.1743,1.1793,1.1811,1.1846,1.1862,1.1884,1.1904,1.1947,1.1974,1.1989,1.2013,1.2046,1.2075,1.2081,1.2091,1.2097,1.2102,1.2069,1.2065,1.2062,1.2052,1.2099,1.2099,1.2134,1.2134,1.2135]},{"header":{"parameterUnit":"m.s-1","parameterCategory":1,"la1":30.2991,"la2":30.254,"lo1":-89.0895,"lo2":-89.0444,"dy":0.0017,"dx":0.0017,"nx":28,"ny":28,"refTime":"2024-03-13T09:00:00:Z","depth":0,"parameterNumber":3,"parameterNumberName":"V-component_of_WINDS"},"data":[0,0,0,0,0,0,0,0,0,0,0,0,0,0,0,0,0,0,0,0,0,0,0,0,0,0,0,0,0,0,0,0,0,0,0,0,0,0,0,0,0,0,0,0,0,0,0,0,0,0,0,0,0,0,0,0,0,0,2.3926,2.3926,0,2.3945,2.3945,2.3945,2.3893,2.3892,2.389,2.3888,2.3906,2.3908,2.391,0,0,0,0,0,0,0,0,0,0,0,0,0,2.3843,2.3845,2.3926,2.3926,2.3927,2.3945,2.3945,2.3945,2.3894,2.3892,2.389,2.3888,2.3906,2.3908,2.3911,0,0,0,0,0,0,0,0,0,0,0,0,0,2.3872,2.3845,2.3926,2.3903,2.3901,2.3945,2.3945,2.3945,2.3894,2.3891,2.3889,2.3887,2.3905,2.3908,2.3911,2.3977,0,0,2.392,2.3921,0,0,0,0,0,0,0,0,2.3871,2.3875,2.3906,2.3905,2.3903,2.3914,2.3922,2.3956,2.3895,2.3897,2.3888,2.3886,2.3911,2.3913,2.3922,2.3978,2.3979,2.392,2.3922,2.3923,2.3924,0,0,0,0,0,0,0,2.3869,2.3874,2.3933,2.3907,2.3904,2.3891,2.3892,2.3928,2.3917,2.3896,2.3893,2.3895,2.3909,2.3919,2.3922,2.3979,2.392,2.3923,2.3925,2.3926,2.4089,2.4092,0,0,0,0,0,0,2.387,2.3873,2.3933,2.3934,2.388,2.3894,2.3896,2.3913,2.3916,2.3915,2.3898,2.3893,2.3915,2.3919,2.3923,2.3999,2.3923,2.3926,2.3928,2.4087,2.409,2.4092,0,0,0,0,0,0,2.3868,2.3876,2.3932,2.3902,2.3909,2.3898,2.3918,2.3915,2.3924,2.3918,2.3915,2.391,2.3914,2.3918,2.3964,2.3999,2.3927,2.393,2.4084,2.4088,2.4091,2.4154,0,0,0,0,0,0,2.3866,2.3876,2.3901,2.3903,2.391,2.3974,2.392,2.3917,2.393,2.3924,2.3928,2.3927,2.3912,2.396,2.3967,2.4002,2.3932,2.408,2.4085,2.409,2.4149,2.416,2.4169,0,0,0,0,0,2.3863,2.3919,2.3903,2.391,2.3943,2.3976,2.398,2.3962,2.3933,2.3958,2.3953,2.3927,2.3994,2.3965,2.3972,2.4009,2.4078,2.4084,2.409,2.4144,2.4158,2.4169,0,0,0,0,0,0,2.3921,2.3918,2.3901,2.3959,2.3968,2.3967,2.3999,2.3977,2.3995,2.3989,2.3966,2.3967,2.4016,2.4017,2.3984,2.4073,2.4031,2.4039,2.407,2.4083,2.4093,2.4091,2.3935,0,0,0,0,0,2.394,2.3968,2.3964,2.4016,2.4021,2.4009,2.4023,2.4009,2.4017,2.4021,2.402,2.4029,2.4052,2.4067,2.4088,2.4149,2.4148,2.4178,2.4188,2.4196,2.4203,2.4233,2.4246,2.4111,2.4111,2.4111,0,0,2.3981,2.3983,2.4002,2.4027,2.4033,2.4061,2.4013,2.4046,2.4066,2.4026,2.4068,2.4068,2.4076,2.4129,2.4152,2.4131,2.424,2.4204,2.421,2.4212,2.424,2.4253,2.4265,2.4115,2.4115,2.4114,0,0,2.4068,2.4074,2.4116,2.4122,2.4131,2.4122,2.4133,2.4135,2.4133,2.4176,2.4145,2.4169,2.421,2.4217,2.4225,2.4315,2.429,2.4322,2.4374,2.4404,2.4415,2.4424,2.4454,2.4466,2.4329,2.4329,2.4329,0,2.4117,2.416,2.414,2.4175,2.4186,2.4151,2.4193,2.42,2.4215,2.4223,2.42,2.4249,2.4252,2.4305,2.4327,2.4336,2.4346,2.4321,2.4415,2.4424,2.4432,2.4461,2.4473,2.4333,2.4332,2.4332,2.4331,0,2.4218,2.4248,2.4281,2.4296,2.4312,2.435,2.4335,2.4353,2.4337,2.4331,2.4374,2.4376,2.4396,2.4408,2.4393,2.4459,2.4445,2.4419,2.4376,2.4449,2.4476,2.4487,2.4338,2.4337,2.4336,2.4335,0,0,2.4343,2.4346,2.4359,2.4364,2.4371,2.4393,2.4429,2.4449,2.4464,2.4476,2.4504,2.4539,2.4514,2.4524,2.4509,2.4536,2.4605,2.4506,2.4506,2.4523,2.4676,2.4695,2.4708,2.4589,2.4591,2.4592,2.4674,0,2.4428,2.449,2.4473,2.4534,2.4561,2.4527,2.4558,2.4565,2.456,2.4581,2.4575,2.46,2.4566,2.4571,2.4596,2.4591,2.4635,2.4585,2.4614,2.4615,2.4612,2.4722,2.4742,2.482,2.4685,2.4686,2.4688,0,2.4536,2.4551,2.4615,2.4616,2.4627,2.4655,2.4671,2.4692,2.4699,2.4693,2.4704,2.4683,2.4718,2.4676,2.4722,2.4688,2.4699,2.4698,2.4701,2.4702,2.4655,2.4725,2.4844,2.4855,2.4704,2.4703,2.4702,0,2.4619,2.4656,2.4698,2.4704,2.4707,2.4727,2.4729,2.4733,2.4746,2.476,2.4767,2.4785,2.4795,2.4809,2.4793,2.4765,2.4841,2.4798,2.4837,2.4837,2.4853,2.4852,2.4975,2.4863,2.4863,2.4862,2.4862,0,2.4715,2.4755,2.4735,2.4761,2.4804,2.4784,2.4827,2.4825,2.483,2.4854,2.4826,2.485,2.4828,2.485,2.4838,2.4877,2.4882,2.4877,2.4873,2.4879,2.488,2.4885,2.4879,2.4865,2.4865,2.4864,2.4864,0,2.4815,2.4803,2.4847,2.4845,2.4846,2.4878,2.4876,2.4899,2.4892,2.4923,2.4929,2.4918,2.4941,2.4927,2.4952,2.4943,2.4994,2.4984,2.4992,2.4988,2.5027,2.5023,2.5156,2.5172,2.5051,2.5052,2.5053,0,2.4877,2.4906,2.4908,2.4922,2.4926,2.4949,2.4962,2.4943,2.4957,2.4966,2.4988,2.5009,2.5025,2.5064,2.5057,2.5075,2.5064,2.5109,2.5066,2.5071,2.5063,2.5061,2.5063,2.5118,2.5119,2.512,2.5121,0,2.4987,2.4979,2.4998,2.5015,2.5031,2.5043,2.5053,2.5066,2.5047,2.5064,2.5087,2.5099,2.5123,2.5144,2.5159,2.516,2.5137,2.5135,2.5144,2.515,2.5153,2.515,2.5014,2.5132,2.5131,2.513,2.5129,2.5129,2.5068,2.5093,2.5097,2.5119,2.5124,2.5134,2.5155,2.5151,2.517,2.5188,2.5175,2.5203,2.5207,2.5225,2.5229,2.525,2.5231,2.5246,2.5249,2.5252,2.5257,2.5151,2.5253,2.5252,2.5252,2.5252,2.5252,0,2.5176,2.5177,2.5197,2.5212,2.5228,2.5206,2.5215,2.523,2.5255,2.5261,2.5277,2.5303,2.5323,2.5318,2.5335,2.5353,2.5343,2.5358,2.5356,2.5356,2.5273,2.5263,2.5366,2.5366,2.5366,2.5366,2.5366,2.5366,2.5234,2.5274,2.5266,2.5307,2.5308,2.5334,2.5342,2.535,2.5355,2.5385,2.5401,2.5398,2.5399,2.5417,2.5433,2.5431,2.5438,2.5457,2.5451,2.5374,2.5362,2.5352,2.5341,2.546,2.546,2.5532,2.5533,2.5534]}]]